Погода в Коровнове

Россия / Костромская область     58°58′37″N   42°21′54″E
темп.,
°C
ветер,
м/с
пор.,
м/с
влажн.,
%
обл.,
%
осадки,
мм/ч
давл.,
гПа
погр.,
м
13 апреля, вт
вт1300:00+6юв41490100 0.0 1033445
03:00+5ююв41295100 0.0 1032464
06:00+5ююв31097100 0.0 1031454
09:00+7ююв41093100 0.0 1029393
12:00+13ю4973100 0.0 1027550
15:00+16ю51168100 0.0 1025790
18:00+14ю41174100 0.0 1025497
21:00+11ю41377100 0.0 1025329
14 апреля, ср
ср1400:00+9ююз3137786 0.0 1024264
03:00+7ю3108197 0.0 1024174
06:00+7ю311775 0.0 1023217
09:00+13ю4126239 0.0 1023408
12:00+16ю51050100 0.0 1022735
15:00+17ю4848100 0.0 10201071
18:00+14ю3955100 0.0 1020334
21:00+11ю31273100 0.0 1020287
15 апреля, чт
чт1500:00+8ююз398096 0.0 1019165
03:00+7зюз228448 0.0 101936
06:00+6зсз118868 0.0 102010
09:00+10ссв227699 0.0 1020426
12:00+11с4374100 0.0 1021801
15:00+8ссв5678100 0.0 1022541
18:00+5св4108797 0.4 1023511
21:00+5св41090100 0.9 1024600
16 апреля, пт
пт1600:00+5св4886100 0.1 1024697
03:00+3ссв3978100 0.1 1025438
06:00+1ссв310805 0.0 1026350
09:00+5св47565 0.0 1026797
12:00+8св46425 0.0 10271260
15:00+9ссв46395 0.0 10271499
18:00+8ссв36465 0.0 1028900
21:00+3ссв28660 0.0 1030153
17 апреля, сб
сб1700:00+2с411745 0.0 1031349
03:00+1ссв411770 0.0 1032446
06:000ссв410775 0.0 1034623
09:00+3ссв58532 0.0 1035904
12:00+6ссв58340 0.0 10361586
15:00+7ссв46295 0.0 10361674
18:00+6ссв363785 0.0 1036726
21:00+2с1153100 0.0 103710